sat.trackr.live / text

‹ back to catalog

FORMOSAT 7-2

NORAD 44351 · 2019-036N

PAYLOAD ACTIVE UNKNOWN

§ Identity

Operator
Country
ROC
Launch date
2019-06-25
Launch site
AFETR
Launch vehicle
Mass (kg)
RCS (m²)

External: N2YO · Heavens-Above · Gunter

§ Orbital elements

Epoch: 2026-09-20T00:43:03.662400Z

Period
96.20 min
Inclination
23.9975°
Eccentricity
0.0000612
Mean motion
14.96831105 rev/d
Perigee alt
576.3 km
Apogee alt
577.1 km
Semi-major
6,954.8 km
B*
1.2899e-4
RAAN
229.2481°
Arg perigee
186.3261°
Mean anomaly
173.7232°
Rev number
39,781

§ Raw data

FORMOSAT 7-21 44351U 19036N   26263.02990350  .00001818  00000+0  12899-3 0  99922 44351  23.9975 229.2481 0000612 186.3261 173.7232 14.96831105397819

JSON: /api/v1/satellites/44351 · /tle

For live sub-satellite position, see the globe view (requires WebGL).

§ Visibility from observer

Set your observer location to see the next 7 days of passes ≥ 10°. The values pass through the URL so the page stays shareable.

No JS? Fill the form by hand. The geolocation button needs JavaScript.

§ Radio — SatNOGS DB

ModeDescriptionDownlinkUplink
CW Downlink 400.900 MHz
FM Mode S TT&C 2.264 GHz
FM Mode S2 2.200 GHz

3 transmitters · refreshed weekly from db.satnogs.org